COSMOS 1823 DEB, 39807

Orbit data source: Space-Track

COSMOS 1823 DEB, 39807 is space debris in LEO originally from a launch on Fri, 20 Feb 1987 UTC launched from the Plesetsk Missile And Space Complex (PKMTR). Debris objects in space refer to the collection of defunct objects orbiting the Earth. Examples of debris include non-operational satellites, rocket bodies, and fragments generated from explosions, collisions, or faulty payload assembly.

Loading next visibility...
Identifier
39807, 1987-020EF
Orbit
LEO
Country
Flag of CISCIS
Related business
Manufacturer
Unknown
Mission
Spacecraft
Bus & Motor
Unknown
Mass
Unknown
Launch date (UTC)
1987-02-20 (39 years ago)
Launch vehicle
Unknown
Launch site
Plesetsk Missile And Space Complex (PKMTR)
Object type
Payload
Rocket body
Debris
Shape & HBR
Unknown shape, 0.1 m
Radar Cross Section
Small (<0.1 m²)

Expand to show TLE details & history
Last TLE update: 4 days ago

TLE from 4 days ago
0 COSMOS 1823 DEB
1 39807U 87020EF  26169.42009808  .00000224  00000-0  23697-3 0  9997
2 39807  74.0239 213.6674 0026591 318.9743  57.2002 13.80193511608788
Epoch: 2026-06-18T10:04Z
TLE epoch observation values (Epoch: 2026-06-18T10:04:56.474Z)
Latitude
15.76561°
Longitude
160.38031°
Altitude
954.531 km
Speed
7.381 km/s
True Right ascension
14h 33m 07s
True Declination
15° 40' 42"
Sunlit
Object was in daylight at epoch
Visualization orbit readout
Latitude
Unknown
Longitude
Unknown
Altitude
Unknown
Speed
Unknown
Apparent Right ascension
Unknown
Apparent Declination
Unknown
Sunlit
N/A
Visualization observer readout
Local Sidereal Time
23:07:59
Azimuth
Unknown
Elevation
Unknown
Doppler factor
Unknown
Orbital elements
Apogee altitude
980.403 km
Perigee altitude
941.372 km
Semi-major axis
7,339.025 km
Eccentricity
0.00266
Inclination
74.0239°
RAAN
213.6674°
Arg. of periapsis
318.9743°
True anomaly
57.45679°
Mean anomaly
57.2002°
Eccentric anomaly
57.32845°
Mean motion
3.45212 °/min
Orbital period
104.28 mins
BSTAR
0.00023697
Loading maneuver chart data...
Computing Atmospheric mass density...

Documentation

Showing up to 5 results
|